Weather History for Seattle Boeing, WA

Change the Weather History Date:

Friday, November 30, 2012

  Actual Average Record
Temperature  
Mean Temperature 52 °F -  
Max Temperature 57 °F 46 °F 57 °F (1951)
Min Temperature 46 °F 36 °F 21 °F (1985)
Degree Days  
Heating Degree Days 14    
Growing Degree Days 2 (Base 50)    
Moisture  
Dew Point 46 °F    
Average Humidity 84    
Maximum Humidity 93    
Minimum Humidity 60    
Precipitation  
Precipitation 1.51 in - - ()
Sea Level Pressure  
Sea Level Pressure 29.43 in    
Wind  
Wind Speed 7 mph (SSE)    
Max Wind Speed 15 mph    
Max Gust Speed 26 mph    
Visibility 7 miles    
Events Rain    
Averages and records for this station are not official NWS values.
T = Trace of Precipitation, MM = Missing Value Source: NWS Daily Summary

Daily Weather History Graph

Daily Weather History Graph

Search for Another Location

Airport:

Trip Planner

Search our weather history database for the weather conditions in past years. The results will help you decide how hot, cold, wet, or windy it might be!

Date:

Astronomy

Nov. 30, 2012 Rise Set
Actual Time 7:35 AM PST 4:20 PM PST
Civil Twilight 7:00 AM PST 4:55 PM PST
Nautical Twilight 6:22 AM PST 5:33 PM PST
Astronomical Twilight 5:45 AM PST 6:10 PM PST
Moon 6:21 PM PST (11/30) 9:10 AM PST (11/30)
Length of Visible Light 9h 54m
Length of Day
8h 44m
Waning Gibbous, 96% of the Moon is Illuminated
Nov 30
Waning Gibbous
Dec 6
Last Quarter
Dec 13
New
Dec 19
First Quarter
Dec 28
Full

Hourly Weather History & Observations

Time (PST) Temp. Windchill Dew Point Humidity Pressure Visibility Wind Dir Wind Speed Gust Speed Precip Events Conditions
12:53 AM 46.9 °F - 43.0 °F 86% 29.45 in 5.0 mi SE 6.9 mph - 0.07 in Rain Rain
1:53 AM 46.9 °F - 44.1 °F 90% 29.43 in 8.0 mi SE 4.6 mph - 0.14 in Rain Light Rain
2:53 AM 46.9 °F - 44.1 °F 90% 29.41 in 10.0 mi South 6.9 mph - 0.00 in Rain Light Rain
3:53 AM 46.9 °F - 44.1 °F 90% 29.40 in 10.0 mi SSE 4.6 mph - 0.02 in Rain Light Rain
4:53 AM 46.0 °F 43.1 °F 43.0 °F 89% 29.39 in 10.0 mi SE 5.8 mph - 0.01 in   Mostly Cloudy
5:53 AM 46.9 °F - 44.1 °F 90% 29.37 in 10.0 mi SSE 3.5 mph - N/A   Scattered Clouds
6:53 AM 48.0 °F - 44.1 °F 86% 29.37 in 10.0 mi SE 6.9 mph - 0.00 in Rain Light Rain
7:53 AM 50.0 °F - 44.1 °F 80% 29.40 in 10.0 mi ESE 9.2 mph - 0.02 in Rain Light Rain
8:53 AM 48.9 °F - 45.0 °F 86% 29.42 in 10.0 mi SE 9.2 mph - 0.01 in   Overcast
9:53 AM 51.1 °F - 46.0 °F 83% 29.42 in 10.0 mi SE 9.2 mph - N/A   Mostly Cloudy
10:53 AM 54.0 °F - 46.0 °F 75% 29.43 in 10.0 mi SSE 8.1 mph - 0.00 in Rain Light Rain
11:53 AM 57.9 °F - 45.0 °F 62% 29.41 in 10.0 mi South 15.0 mph 26.5 mph 0.01 in   Mostly Cloudy
12:53 PM 57.9 °F - 44.1 °F 60% 29.41 in 10.0 mi South 10.4 mph - N/A   Mostly Cloudy
1:53 PM 57.0 °F - 45.0 °F 64% 29.42 in 8.0 mi South 12.7 mph - 0.00 in Rain Light Rain
2:53 PM 54.0 °F - 46.9 °F 77% 29.44 in 7.0 mi South 5.8 mph - 0.04 in Rain Light Rain
3:53 PM 53.1 °F - 48.0 °F 83% 29.45 in 7.0 mi SSE 5.8 mph - 0.05 in Rain Light Rain
4:53 PM 52.0 °F - 48.9 °F 89% 29.45 in 4.0 mi SSE 6.9 mph - 0.10 in Rain Rain
5:02 PM 51.8 °F - 48.2 °F 88% 29.45 in 2.5 mi South 6.9 mph - 0.06 in Rain Heavy Rain
5:12 PM 51.8 °F - 48.2 °F 88% 29.46 in 3.0 mi South 11.5 mph 17.3 mph 0.11 in Rain Heavy Rain
5:53 PM 51.1 °F - 46.9 °F 86% 29.46 in 4.0 mi South 5.8 mph 17.3 mph 0.22 in Rain Rain
6:53 PM 50.0 °F - 46.9 °F 89% 29.47 in 5.0 mi SSE 8.1 mph - 0.13 in Rain Rain
7:53 PM 50.0 °F - 46.9 °F 89% 29.45 in 6.0 mi ESE 6.9 mph - 0.12 in Rain Rain
8:53 PM 48.9 °F - 46.9 °F 93% 29.44 in 3.0 mi ESE 5.8 mph - 0.19 in Rain Rain
9:53 PM 50.0 °F - 46.9 °F 89% 29.41 in 5.0 mi ESE 5.8 mph - 0.10 in Rain Rain
10:53 PM 48.9 °F - 46.9 °F 93% 29.42 in 3.0 mi SE 5.8 mph - 0.18 in Rain Heavy Rain
11:28 PM 48.2 °F - 46.4 °F 93% 29.42 in 10.0 mi SE 4.6 mph - 0.09 in Rain Light Rain
11:53 PM 48.9 °F - 46.9 °F 93% 29.43 in 9.0 mi SE 8.1 mph - 0.10 in Rain Light Rain